Home > Weather > Santa Clara > Past weeks

Flag for USA Past Weather in Santa Clara, California, USA — Yesterday and Last 2 Weeks

Now
60 °F

Passing clouds.


Feels Like: 60 °F
Forecast: 56 / 82 °F
Wind: 7 mph from Southeast

Location: San Jose International Airport

Current Time: Jul 25, 2016 at 9:01:27 AM

Latest Report: Jul 25, 2016 at 7:53 AM


Visibility: 7 mi

Pressure: 29.95 "Hg

Humidity: 72%

Dew Point: 51 °F

Location of Santa ClaraLocation

Past Weather in Santa Clara — Graph

°F

Santa Clara Temperature Yesterday

Maximum temperature yesterday: 85 °F (at 2:53 PM)
Minimum temperature yesterday: 61 °F (at 1:53 AM)
Average temperature yesterday: 70 °F

High & Low Weather Summary for the Past Weeks

 TemperatureHumidityPressure
High89 °F (Jul 13, 2:53 PM)87% (Jul 25, 4:53 AM)30.13 "Hg (Jul 25, 4:53 AM)
Low56 °F (Jul 12, 4:53 AM)26% (Jul 22, 1:53 PM)29.83 "Hg (Jul 16, 4:53 PM)
Average68 °F61%29.97 "Hg
* Reported Jul 10 7:53 AM — Jul 25 7:53 AM, Santa Clara, Weather by CustomWeather, © 2016

Note: Actual official high and low records may vary slightly from our data, if they occured in-between our weather recording intervals... More about our weather records

Advertising

Santa Clara Weather History for the Previous 24 Hours

Scroll right to see more
 ConditionsComfort  
Time TempWeatherWind HumidityBarometerVisibility
7:53 AM
Mon, Jul 25
60 °FPassing clouds.7 mph72%29.95 "Hg7 mi
6:53 AM58 °FPassing clouds.7 mph78%29.94 "Hg7 mi
5:53 AM58 °FPassing clouds.5 mph81%29.93 "Hg9 mi
4:53 AM57 °FClear.3 mph87%29.93 "Hg10 mi
3:53 AM59 °FClear.No wind84%29.92 "Hg10 mi
2:53 AM60 °FClear.5 mph80%29.92 "Hg10 mi
1:53 AM60 °FClear.No wind80%29.91 "Hg10 mi
12:53 AM61 °FClear.6 mph78%29.92 "Hg10 mi
11:53 PM
Sun, Jul 24
62 °FClear.6 mph78%29.92 "Hg10 mi
10:53 PM63 °FClear.6 mph75%29.91 "Hg10 mi
9:53 PM65 °FClear.7 mph70%29.90 "Hg10 mi
8:53 PM67 °FPassing clouds.9 mph66%29.88 "Hg10 mi
7:53 PM71 °FPassing clouds.12 mph57%29.88 "Hg10 mi
6:53 PM75 °FPassing clouds.13 mph55%29.86 "Hg10 mi
5:53 PM79 °FPassing clouds.14 mph48%29.84 "Hg10 mi
4:53 PM82 °FPassing clouds.15 mph43%29.84 "Hg10 mi
3:53 PM84 °FPassing clouds.13 mph38%29.83 "Hg10 mi
2:53 PM85 °FPassing clouds.13 mph39%29.84 "Hg10 mi
1:53 PM84 °FPassing clouds.10 mph41%29.85 "Hg10 mi
12:53 PM82 °FPassing clouds.8 mph46%29.85 "Hg10 mi
11:53 AM80 °FPassing clouds.6 mph45%29.86 "Hg10 mi
10:53 AM78 °FPassing clouds.3 mph43%29.86 "Hg10 mi
9:53 AM72 °FPassing clouds.No wind55%29.86 "Hg10 mi
Weather by CustomWeather, © 2016

See weather overviewHow to use our weather pages